Torna al catalogo

BROKKER-2 ODIN

LostScienzaHEO
NORAD 63102·PAYLOAD·🇺🇸 United States

Lanciato Feb 27, 2025 da Cape Canaveral Space Force Station

Loading…

Prossimi Passaggi (prossime 24 ore)

TLE

ObsoletoSource: Space-Track

Epoca: Feb 27, 2025, 00:53 UTC

1 63102U 25038D   25058.03746186 -.00007054  00000-0  00000-0 0  9992
2 63102  28.5200 357.2438 9653600 216.4100   0.0142  0.10463308    08

Traccia BROKKER-2 ODIN in tempo reale con AllMySat

Download on the App Store